星链-36489(STARLINK-36489)

导读

STARLINK-36489是美国于2026年1月4日发射的星链系列卫星,星链项目由太空探索技术公司SpaceX主导,旨在构建覆盖全球的低轨卫星互联网星座,为全球用户提供高速率、低延迟的互联网接入服务,该卫星入轨后将进一步扩充星链星座的卫星规模,提升全球网络覆盖能力与服务稳定性。

基本信息
目录编号:
67328
目录名称:
STARLINK-36489
国际标识:
2026-002Z
轨道中心:
EARTH
卫星名称:
星链-36489
卫星全名:
星链-36489(STARLINK-36489)
卫星状态:
在轨 (已飞行243 天)
发射日期:
2026-01-04 UTC
国别 :
美国 (US)
星等 :
--
轨道信息
数据来源 国际轨道数据
星历时间: 2026-09-03T20:29:05+0800
21小时前
查看轨道信息
半长轴: 6861.173km
偏心率: 0.0001535
轨道倾角: 42.999°
近地点辐角 253.565°
升交点赤经 41.156°
平近点角 106.503°
近地点: 481.982km
远地点: 484.09km
周期: 94.266分钟
每日圈数: 15.275844
详细信息
固有亮度:
5
最大亮度:
2.5
卫星平台:
Starlink V1.0
覆盖范围:
全球
运营商:
太空探索技术公司
运营商所在国:
美国
制造商(研发单位):
太空探索技术公司
制造商所在国:
美国
使用方式:
暂无
卫星简介
Starlink 计划是 SpaceX 推出的全球卫星互联网项目,通过发射低轨道卫星,为全球尤其是偏远地区提供高速、低延迟的互联网服务。自 2019 年起,Starlink 已部署数千颗卫星,旨在缩小全球数字鸿沟,推动互联网普及。该项目还为军事、航空等行业提供通信支持,带来广泛经济效益。
2D轨道图
3D轨道图
轨道高度分析图
轨道倾角分析图
轨道综合分析图
查看轨道综合分析图
交会数据列表
事件ID 空间交会对象 最接近时刻(TCA) 交会距离 交会风险概率(CRP) 交会风险指数(CRI) 操作
CDM_260904-042105-870106-732822
2026-09-04T
04:21:03+0000
0.397 km
远距离
2.355665E-4 高风险 0.82